Search for airport 
image banner adimage banner ad
image banner ad

VABV - Bhavnagar

Located in Bhavnagar, India

ICAO - VABV, IATA - BHU

Data provided by Airmate  

General information

Coordinates: N21°45'16" E72°11'26"
Elevation is 44 feet MSL.
 
Rated:
View ratings: [VIEW]


View others Airports in Gujarat

Operational data

Open for public use
Current time UTC:
Current local time:
Weather
TAF: TAF VABV 211700Z 2118/2203 32006KT 3000 FU NSC BECMG 2201/2203 36006KT 2000 HZ
View NOTAMs / SUP AIP / TFR affecting this airport [VIEW]
Communications frequencies: [VIEW]

Runways:

RWY identifierQFULength (ft)Width (ft)SurfaceLDA (ft)
0768°6302148ASP
25248°6302148

Airport contact information

Address: Bhavnagar India

Satellite view of VABV